Volver al catálogo

SL-8 DEB *

ActivoLEO
NORAD 18501·DEBRIS·🇷🇺 Russia

Lanzado Feb 17, 1978 desde Plesetsk Cosmodrome

Loading…

Próximos Pases (próximas 24 horas)

TLE

ActualizadoSource: Space-Track

Época: Sep 14, 2026, 07:21 UTC

1 18501U 78019E   26257.30647970  .00002028  00000-0  27546-3 0  9997
2 18501  74.0510 318.4399 0007500  77.9060  43.8074 14.79534672200996

Sigue SL-8 DEB * en tiempo real con AllMySat

Download on the App Store